Meteo Giornale » Osservazioni meteo Italia » Verona-Villafranca

ore: 00:50 - Osservazioni Meteo Verona-Villafranca
Lat. 45° 23' N Lon. 10° 52' E Alt. 67 metri s.l.m.

sereno Europe/Rome

18 °C

Sereno

Temp. 24 Ore

18 °C

25 °C

Nord

5.5 Km/h

Dew point 16 °C

Umidità 88 %

Visibilità  10 Km

Il sole sorge alle ore 05:42

Il sole tramonta alle ore 21:03

Data e Ora Cielo e Fenomeni T °C DP °C Um. % Pres. hPa Vis. km Vento km/h
Oggi h: 00:50 sereno Sereno 18 16 88 1013 10 N 5.5
Oggi h: 00:20 sereno Sereno 18 16 88 1014 10 N/NO 9.3
Ieri h: 23:50 sereno Sereno 18 17 93 1013 10 O/NO 9.3
Ieri h: 23:20 poco_nuvoloso Poco Nuvoloso 19 17 88 1013 10 NO 7.4
Ieri h: 22:50 poco_nuvoloso Poco Nuvoloso 19 17 88 1013 10 N 5.5
Ieri h: 22:20 poco_nuvoloso Poco Nuvoloso 19 17 88 1013 10 N 5.5
Ieri h: 21:50 poco_nuvoloso Poco Nuvoloso 20 17 82 1012 10 SO 7.4
Ieri h: 21:20 poco_nuvoloso Poco Nuvoloso 21 17 77 1012 10 O/SO 9.3
Ieri h: 20:50 poco_nuvoloso Poco Nuvoloso 21 17 77 1012 10 SO 7.4
Ieri h: 20:20 poco_nuvoloso Poco Nuvoloso 21 17 77 1012 10 S/SO 11.1
Ieri h: 19:50 poco_nuvoloso Poco Nuvoloso 22 17 73 1012 10 S/SO 13
Ieri h: 19:20 poco_nuvoloso Poco Nuvoloso 23 17 68 1011 10 S 9.3
Ieri h: 18:50 nuvoloso Nuvoloso 23 17 68 1011 10 S/SE 14.8
Ieri h: 18:20 nuvoloso Nuvoloso 24 14 53 1011 10 E 11.1
Ieri h: 17:50 nuvoloso Nuvoloso 25 14 50 1011 10 E 11.1
Ieri h: 17:20 nuvoloso Nuvoloso 25 14 50 1011 10 E 13
Ieri h: 16:50 nuvoloso Nuvoloso 25 14 50 1011 10 E 14.8
Ieri h: 16:20 nuvoloso Nuvoloso 24 14 53 1011 10 E 14.8
Ieri h: 15:50 nuvoloso Nuvoloso 24 14 53 1011 10 E/NE 13
Ieri h: 15:20 molto_nuvoloso Molto Nuvoloso 23 14 56 1011 10 NE 14.8
Ieri h: 14:50 molto_nuvoloso Molto Nuvoloso 22 13 56 1012 10 NE 13
Ieri h: 14:20 molto_nuvoloso Molto Nuvoloso 21 14 64 1011 10 NE 11.1
Ieri h: 13:50 coperto_pioggia Pioviggine Leggera 21 15 68 1011 10 NE 9.3
Ieri h: 13:20 molto_nuvoloso Molto Nuvoloso 21 14 64 1011 10 E/NE 9.3
Ieri h: 12:50 molto_nuvoloso Molto Nuvoloso 21 15 68 1011 10 NE 14.8
Ieri h: 12:20 coperto_pioggia Pioggia Debole 20 16 77 1011 10 N 16.7
Ieri h: 11:50 coperto_pioggia Pioggia Debole 20 15 72 1011 10 N 14.8
Ieri h: 11:20 coperto_pioggia Pioggia Debole 19 15 77 1011 9 N/NE 13
Ieri h: 10:50 coperto_pioggia Pioggia 18 15 82 1011 8 N/NE 7.4
Ieri h: 10:20 coperto_pioggia Pioggia 18 15 82 1011 8 N/NE 11.1
Ieri h: 09:50 coperto_pioggia Pioggia 18 15 82 1011 8 N/NE 18.5
Ieri h: 09:20 coperto_pioggia Pioviggine Leggera Rovescio nelle Vicinanze 18 14 77 1010 9 N/NE 20.3
Ieri h: 08:50 coperto_pioggia Pioviggine Leggera Rovescio nelle Vicinanze 20 13 64 1010 10 NE 16.7
Ieri h: 08:20 molto_nuvoloso Rovescio nelle Vicinanze 19 16 82 1010 9 N 3.7
Ieri h: 07:50 coperto_pioggia Pioggia Debole 19 16 82 1010 10 N 3.7
Ieri h: 07:20 coperto_pioggia Pioggia Debole 18 16 88 1009 10 N 13
Ieri h: 06:50 coperto_pioggia Pioggia Debole 19 15 77 1009 10 N/NO 18.5
Ieri h: 06:20 nuvoloso Nuvoloso 18 15 82 1009 10 N/NO 14.8
Ieri h: 05:50 nuvoloso Nuvoloso 19 15 77 1010 10 NO 13
Ieri h: 05:20 coperto_pioggia Pioggia Debole 20 15 72 1010 10 N/NO 9.3
Ieri h: 04:50 coperto_pioggia Pioggia Debole 20 14 68 1010 10 N 9.3
Ieri h: 04:20 nuvoloso Nuvoloso 22 13 56 1010 10 NE 9.3
Ieri h: 03:50 nuvoloso Nuvoloso 22 13 56 1010 10 NE 9.3
Ieri h: 03:20 nuvoloso Nuvoloso 22 13 56 1010 10 NE 11.1
Ieri h: 02:50 nuvoloso Nuvoloso 22 14 60 1010 10 E/NE 11.1
Ieri h: 02:20 nuvoloso Nuvoloso 22 14 60 1010 10 E/NE 9.3
Ieri h: 01:50 coperto_pioggia Pioggia Debole 22 15 64 1010 10 E/NE 9.3